Flag for Canada Weather past 2 weeks in Niagara Falls, Ontario, Canada

Now
36 °F

Passing clouds.


Feels Like: 28 °F
Forecast: 32 / 51 °F
Wind: 12 mph from Northwest

Location: Niagara Falls International Airport


UV Index: 5 (Moderate)

Visibility: 10 mi


Pressure: 30.43 "Hg

Humidity: 75%

Dew point: 29 °F

Location of Niagara FallsLocation

Historic Weather in Niagara Falls

°F

Niagara Falls temperature yesterday

Maximum temperature yesterday: 57 °F (at 1:53 PM)
Minimum temperature yesterday: 40 °F (at 11:53 PM)
Average temperature yesterday: 48 °F

Past Weeks' High & Low Weather Summary

 TemperatureHumidityPressure
High74 °F (Apr 13, 1:53 PM)97% (Apr 11, 7:53 AM)30.58 "Hg (Apr 11, 7:53 AM)
Low24 °F (Apr 15, 11:53 PM)27% (Apr 17, 5:53 PM)29.25 "Hg (Apr 8, 5:00 AM)
Average44 °F67%29.97 "Hg
* Reported Apr 4 7:00 AM — Apr 19 7:53 AM, Niagara Falls, Weather by CustomWeather, © 2014

Note: Actual official high and low records may vary slightly from our data, if they occured in-between our weather recording intervals... More about our weather records

Advertising

Historic Weather Conditions — Data for Previous 24 hours

 ConditionsComfort  
Time TempWeatherWind HumidityBarometerVisibility
7:53 AM
Apr 19
36 °FPassing clouds.12 mph75%30.43 "Hg10 mi
6:53 AM32 °FClear.10 mph85%30.41 "Hg9 mi
5:53 AM33 °FClear.8 mph82%30.38 "Hg10 mi
4:53 AM33 °FClear.7 mph78%30.37 "Hg10 mi
2:53 AM34 °FClear.7 mph82%30.34 "Hg10 mi
1:53 AM35 °FClear.6 mph78%30.33 "Hg10 mi
12:53 AM36 °FClear.3 mph75%30.32 "Hg10 mi
11:53 PM
Apr 18
40 °FClear.9 mph70%30.31 "Hg10 mi
10:53 PM42 °FPassing clouds.9 mph76%30.29 "Hg10 mi
9:53 PM41 °FPassing clouds.5 mph86%30.29 "Hg9 mi
8:53 PM44 °FScattered clouds.No wind76%30.27 "Hg9 mi
7:53 PM46 °FPartly sunny.5 mph79%30.27 "Hg8 mi
6:53 PM49 °FBroken clouds.17 mph66%30.26 "Hg10 mi
5:53 PM50 °FPartly sunny.7 mph63%30.24 "Hg10 mi
4:53 PM52 °FLight rain. Cloudy.10 mph66%30.23 "Hg10 mi
3:53 PM57 °FMore clouds than sun.7 mph47%30.23 "Hg10 mi
2:53 PM57 °FBroken clouds.12 mph44%30.24 "Hg10 mi
1:53 PM57 °FCloudy.5 mph44%30.24 "Hg10 mi
12:53 PM55 °FMostly cloudy.13 mph44%30.26 "Hg10 mi
11:53 AM54 °FCloudy.12 mph43%30.27 "Hg10 mi
10:53 AM53 °FMostly cloudy.8 mph45%30.29 "Hg10 mi
9:53 AM50 °FMostly cloudy.9 mph48%30.30 "Hg10 mi
Weather by CustomWeather, © 2014

See weather overview